Regional Weather Roundup
Issued by NWS

Home | Current Version | Previous Version | Text Only | Print | Product List | Glossary Off
Versions: 1 2 3 4 5 6 7 8 9 10 11 12 13 14 15 16 17 18 19 20 21 22 23 24 25 26 27

000
ASUS45 KCYS 261310
RWRWY

WYOMING REGIONAL WEATHER ROUNDUP
NATIONAL WEATHER SERVICE CHEYENNE WY
600 AM MST SUN FEB 26 2017

NOTE:  "FAIR" INDICATES FEW OR NO CLOUDS BELOW 12,000 FEET
WITH NO SIGNIFICANT WEATHER AND/OR OBSTRUCTIONS TO VISIBILITY.

WYZ001-261400-
YELLOWSTONE NATIONAL PARK

CITY           SKY/WX    TMP DP  RH WIND       PRES   REMARKS
LK YELLOWSTONE   N/A      6   3  87 CALM      29.72S
W YELLOWSTONE  NOT AVBL

$$
WYZ002>013-054>058-071-098>099-261400-
NORTHERN WYOMING

CITY           SKY/WX    TMP DP  RH WIND       PRES   REMARKS
JACKSON        CLOUDY    12  10  92 W8        29.79S WCI   1
CODY           FAIR      21   2  43 W14G28    29.71S WCI   8
GREYBULL       CLOUDY    19  13  77 CALM      29.76S
WORLAND        FAIR      12   6  77 S8        29.76R WCI   0
SHERIDAN       MOCLDY    15   5  64 SE12      29.72S WCI   2
BUFFALO        FAIR      15  -1  49 W8        29.69R WCI   4
GILLETTE       FAIR      17   5  59 SW14      29.71R WCI   3
HULETT         FAIR      19  12  73 SW9       29.71S WCI   9
NEWCASTLE      FAIR       7   3  85 SE7       29.76F WCI  -5

$$
WYZ014>020-022>026-101>103-261400-
CENTRAL WYOMING

CITY           SKY/WX    TMP DP  RH WIND       PRES   REMARKS
BIG PINEY      FAIR     -16 -19  87 N6        29.81S WCI -31
PINEDALE       FAIR     -13 -17  84 NW3       29.80F
DUBOIS         FAIR       9  -4  56 NW22      29.68F WCI -11
LANDER         FAIR       7  -7  52 VRB3      29.71S
RIVERTON       FAIR      10  -2  58 W20       29.71R WCI  -9
CASPER         FAIR      10   0  63 SW18      29.75S WCI  -8
DOUGLAS        FAIR      -1  -8  72 E3        29.77R

$$
WYZ021-027>030-104>119-261400-
SOUTHERN WYOMING

CITY           SKY/WX    TMP DP  RH WIND       PRES   REMARKS
EVANSTON       FLURRIES   4  -1  80 SW12      29.82F WCI -12
KEMMERER         N/A    N/A N/A N/A W8        29.80S
FORT BRIDGER   FAIR       7   1  75 SW15      29.84F WCI -10
ROCK SPRINGS   FAIR       7   1  76 SW18      29.81F WCI -12
DIXON            N/A     -1  -5  80 CALM      29.90R
RAWLINS        FAIR       9   2  73 SW18      29.77S WCI -10
SARATOGA       FAIR      10   3  72 SW10      29.81S WCI  -3
LARAMIE        FAIR       7  -3  64 SW14      29.72F WCI -10
CHEYENNE       FAIR      15  -1  49 W17       29.74S WCI  -1
TORRINGTON     FAIR       9  -1  64 CALM      29.81R
PINE BLUFFS    FAIR       1  -6  71 MISG      29.80S

$$




USA.gov is the U.S. government's official web portal to all federal, state and local government web resources and services.